Regional Weather Roundup
Issued by NWS

Home | Current Version | Previous Version | Graphics & Text | Print | Product List | Glossary On
Versions: 1 2 3 4 5 6 7 8 9 10 11 12 13 14 15 16 17 18 19 20 21 22 23 24 25 26 27 28 29 30 31 32 33 34 35 36 37 38 39 40 41 42 43 44 45 46 47 48 49 50
000
ASUS45 KTFX 270219
RWRMT
MONTANA HOURLY WEATHER ROUNDUP
NATIONAL WEATHER SERVICE GREAT FALLS MT
719 PM MST MON JAN 26 2015

NOTE: "FAIR" INDICATES FEW OR NO CLOUDS BELOW 12000 FEET WITH NO
SIGNIFICANT WEATHER AND/OR OBSTRUCTIONS TO VISIBILITY.

* THESE STATIONS ARE NOT UNDER NWS QUALITY CONTROL. THEY DO NOT
   REPORT WEATHER SUCH AS PRECIPITATION OR FOG.

MTZ001>007-043-270300-
WEST OF THE DIVIDE
CITY           SKY/WX    TMP DP  RH WIND       PRES   REMARKS
KALISPELL      PTCLDY    30  28  92 CALM      30.01R
MISSOULA       PTCLDY    34  28  79 VRB3      30.06S
BUTTE          PTCLDY    36  28  73 SE5       30.12S WCI  32
MULLAN PASS    CLOUDY    45  27  49 W8G22     30.08S
* ANACONDA     PTCLDY    48  27  44 SW6        N/A
* ESSEX        N/A       34  30  85 E2         N/A
* EUREKA APT   PTCLDY    37  30  76 CALM      29.99R
* HAMILTON APT PTCLDY    41  30  65 SE1       30.06S
* LIBBY APT    PTCLDY    30  30 100 CALM      30.02R
* LINCOLN      N/A       45  26  47 S4G9       N/A
* LOOKOUT PASS N/A       47  30  52 E3         N/A
* POLSON       N/A       48  30  50 SE2        N/A
* RONAN APT    PTCLDY    36  36 100 N/A        N/A
* SEELEY LAKE  N/A       34  27  76 NE2        N/A
* THOMP F APT  PTCLDY    37  27  67 N3         N/A
* YAAK HILL    N/A       35  32  89 NE1        N/A
$$

MTZ008-052>055-270300-
SOUTHWEST MONTANA
CITY           SKY/WX    TMP DP  RH WIND       PRES   REMARKS
BOZEMAN        PTCLDY    37  30  76 SE7       30.09R WCI  32
DILLON         PTCLDY    43  28  56 SW16      30.13R
* W YELLOWSTON MOCLDY    26  25  96 N/A        N/A
* THREE FORKS  PTCLDY    37  32  82 N/A        N/A
* BOULDER HILL N/A       51  25  36 SW8        N/A
* MONIDA PASS  N/A       34  31  89 SE10       N/A   WCI  26
* RAYNOLDS PAS N/A       36  17  46 SE16       N/A   WCI  26
* WHITEHALL    N/A       50  29  44 SW6G15     N/A
* WISE RIVER   N/A       39  28  65 W6         N/A   WCI  35
$$

MTZ009>010-012-014-046-048-049-054-270300-
EAST SLOPES AND CENTRAL MONTANA
CITY           SKY/WX    TMP DP  RH WIND       PRES   REMARKS
CUT BANK       PTCLDY    48  28  46 SW6       29.89R
GREAT FALLS    PTCLDY    50  30  46 SW14      29.92R
HELENA         PTCLDY    43  32  65 SW3       30.02S
MALMSTROM AFB  PTCLDY    50  30  46 S14       29.93S
* CONRAD       PTCLDY    48  34  59 CALM       N/A
* DEARBORN     N/A       53  31  43 S7         N/A
* EAST GLACIER N/A       53  26  35 W17G27     N/A
* MONARCH      N/A       50  18  28 S9         N/A
* PENDROY      N/A       47  26  44 W8         N/A
* ROGERS PASS  N/A       51  23  33 SE13G22    N/A
* SWEET GRASS  N/A       54  28  37 SW20       N/A
* WHITE SULPH  N/A       54  25  33 S13G19     N/A
$$

MTZ011-013-016-021-035-040-045-047-050-051-270300-
NORTH CENTRAL MONTANA
CITY           SKY/WX    TMP DP  RH WIND       PRES   REMARKS
HAVRE          MOCLDY    43  34  71 W6        29.84S
LEWISTOWN      PTCLDY    48  30  50 SW20      29.96F
* N BAR RANCH  CLEAR     50  27  41 CALM      29.99S
* CHINOOK      MOCLDY    41  34  76 E3        29.85F
* CHESTER      N/A       44  34  68 NE1        N/A
* DENTON       N/A       50  30  46 SW18       N/A
* GEYSER       N/A       49  23  36 SW5        N/A
* JUDITH GAP   N/A       54  28  37 SE2        N/A
* LOMA         N/A       50  35  57 SW4        N/A
$$

MTZ017>020-022>027-061-062-270300-
NORTHEAST MONTANA
CITY           SKY/WX    TMP DP  RH WIND       PRES   REMARKS
GLASGOW        PTCLDY    39  34  82 CALM      29.87S
GLENDIVE       PTCLDY    41  34  76 CALM      29.92R
JORDAN         PTCLDY    34  30  85 CALM      29.88F
SIDNEY         MOCLDY    36  30  79 CALM      29.91F
WOLF POINT     MOCLDY    36  30  79 CALM      29.88F
* BEAVER HILL  N/A       43  34  71 S9         N/A
* CIRCLE       N/A       42  35  76 N/A        N/A
* LINDSAY DVD  N/A       44  31  60 NW4        N/A
* NAVAJO       N/A       36  33  89 W9         N/A   WCI  29
* PLENTYWOOD A MOCLDY    37  34  89 E5        29.88F WCI  33
* POPLAR APT   MOCLDY    39  36  89 N/A       29.88S
* SACO         N/A       40  34  79 SE10       N/A   WCI  34
$$

MTZ028>042-056>058-270300-
SOUTHCENTRAL AND SOUTHEAST MONTANA
CITY           SKY/WX    TMP DP  RH WIND       PRES   REMARKS
BAKER          CLEAR     39  30  70 CALM      29.94S
BILLINGS       CLEAR     54  27  35 SW24      30.00S
LIVINGSTON     CLEAR     55  27  34 W20G30    30.05S
MILES CITY     MOCLDY    45  34  65 S6        29.92F
* BIG TIMBER A PTCLDY    52  28  40 SW9       30.05S
* FORSYTH APT  MOCLDY    52  30  43 CALM      29.92F
* LAUREL APT   CLEAR     50  25  38 S11G20     N/A
* ROUNDUP APT  PTCLDY    55  27  34 N/A        N/A
* ALZADA       N/A       50  30  46 NW2        N/A
* HYSHAM       N/A       53  27  37 W6         N/A
* LAME DEER    N/A       55  27  34 W9         N/A
* REED POINT   N/A       43  32  65 N/A        N/A
* ROSCOE HILL  N/A       62  15  16 S12G17     N/A
$$

REGIONAL REPORTS...DAKOTAS
CITY           SKY/WX    TMP DP  RH WIND       PRES   REMARKS
WILLISTON      PTCLDY    36  30  79 CALM      29.90S
DICKINSON      PTCLDY    34  28  79 S7        29.90F WCI  28
BEACH          CLEAR     39  36  89 SW9       29.91F WCI  33
CROSBY         CLEAR     32  32 100 S7        29.91S WCI  25
TIOGA          CLEAR     28  28 100 E5        29.94S WCI  22
WATFORD CITY   CLEAR     32  30  92 CALM      29.89F
BISMARCK       PTCLDY    32  30  92 E6        29.98S WCI  26
GRAND FORKS    MOCLDY    28  25  89 CALM      29.99R
FARGO          PTCLDY    30  25  82 N6        29.99S WCI  24
BUFFALO SD     CLEAR     50  32  50 SW6       29.90S
RAPID CITY     CLEAR     45  28  51 CALM      30.00S
$$

REGIONAL REPORTS...WYOMING/IDAHO/WASHINGTON
CITY           SKY/WX    TMP DP  RH WIND       PRES   REMARKS
GILLETTE       CLEAR     52  28  40 SW20      30.04F
SHERIDAN       CLEAR     46  28  50 S7        30.02F
CODY           CLEAR     37  30  76 S3        30.13S
YELLOWSTONE LA PTCLDY    23  19  85 CALM      30.34S
SALMON         CLOUDY   N/A N/A N/A CALM      30.23F VSB M1/4
MULLAN PASS    CLOUDY    45  27  49 W8G22     30.08S
SAND POINT     FOG       32  32 100 CALM      30.04S VSB M1/4
SPOKANE        MOCLDY    41  37  86 CALM      30.00F
$$

REGIONAL REPORTS...ALBERTA
CITY           SKY/WX    TMP DP  RH WIND       PRES   REMARKS
CALGARY        MOCLDY    41  32  70 CALM      29.73F
LETHBRIDGE     MOCLDY    46  34  63 SW17      29.80R
MEDICINE HAT   MOCLDY    41  36  82 S6        29.76F
EDMONTON       CLOUDY    34  30  85 E6        29.77S WCI  29
WATERTON GATE  N/A       57  27  32 SW18G29    N/A
CARDSTON       N/A       52  30  43 S5         N/A
MILK RIVER     N/A       52  30  43 SW15       N/A
$$

REGIONAL REPORTS...SASKATCHEWAN
CITY           SKY/WX    TMP DP  RH WIND       PRES   REMARKS
SWIFT CURRENT  CLEAR     36  30  79 S6        29.80F WCI  31
REGINA         N/A       32  30  92 SE9       29.86F WCI  24
VAL MARIE      N/A       32  30  92 SW2        N/A
ASSINIBOIA     N/A       36  30  79 S7         N/A   WCI  30
CORONACH       N/A       30  28  92 SE2        N/A

$$



USA.gov is the U.S. government's official web portal to all federal, state and local government web resources and services.